Time,TemperatureF,DewpointF,PressureIn,WindDirection,WindDirectionDegrees,WindSpeedMPH,WindSpeedGustMPH,Humidity,HourlyPrecipIn,Conditions,Clouds,dailyrainin,SoftwareType,DateUTC
2013-06-17 00:02:00,70.0,67.0,-100.00,North,10,3.0,4.0,90,-99.99,,,-99.99,,2013-06-17 04:02:00,
2013-06-17 00:12:00,70.0,67.0,-100.00,North,0,3.0,4.0,90,-99.99,,,-99.99,,2013-06-17 04:12:00,
2013-06-17 00:23:00,70.0,67.0,-100.00,North,0,3.0,4.0,90,-99.99,,,-99.99,,2013-06-17 04:23:00,
2013-06-17 00:34:00,70.0,67.0,-100.00,North,0,5.0,6.0,90,-99.99,,,-99.99,,2013-06-17 04:34:00,
2013-06-17 00:43:00,70.0,67.0,-100.00,SSE,160,4.0,6.0,90,-99.99,,,-99.99,,2013-06-17 04:43:00,
2013-06-17 00:53:00,69.0,66.0,-100.00,SSE,155,8.0,15.0,89,-99.99,,,-99.99,,2013-06-17 04:53:00,
2013-06-17 01:02:00,69.0,66.0,-100.00,SSE,155,8.0,15.0,89,-99.99,,,-99.99,,2013-06-17 05:02:00,
2013-06-17 01:12:00,69.0,66.0,-100.00,South,175,3.0,5.0,89,-99.99,,,-99.99,,2013-06-17 05:12:00,
2013-06-17 01:22:00,69.0,66.0,-100.00,South,175,3.0,5.0,89,-99.99,,,-99.99,,2013-06-17 05:22:00,
2013-06-17 01:33:00,69.0,66.0,-100.00,North,0,2.0,5.0,89,-99.99,,,-99.99,,2013-06-17 05:33:00,
2013-06-17 01:44:00,70.0,66.0,-100.00,SSE,165,2.0,4.0,89,-99.99,,,-99.99,,2013-06-17 05:44:00,
2013-06-17 01:53:00,70.0,66.0,-100.00,SSE,165,2.0,4.0,89,-99.99,,,-99.99,,2013-06-17 05:53:00,
2013-06-17 02:02:00,70.0,66.0,-100.00,SE,125,3.0,3.0,88,-99.99,,,-99.99,,2013-06-17 06:02:00,
2013-06-17 02:12:00,70.0,66.0,-100.00,North,5,4.0,5.0,88,-99.99,,,-99.99,,2013-06-17 06:12:00,
2013-06-17 02:22:00,70.0,66.0,-100.00,North,5,4.0,5.0,88,-99.99,,,-99.99,,2013-06-17 06:22:00,
2013-06-17 02:33:00,70.0,66.0,-100.00,North,5,3.0,5.0,87,-99.99,,,-99.99,,2013-06-17 06:33:00,
2013-06-17 02:43:00,70.0,66.0,-100.00,North,5,5.0,6.0,87,-99.99,,,-99.99,,2013-06-17 06:43:00,
2013-06-17 02:53:00,70.0,66.0,-100.00,North,10,4.0,5.0,87,-99.99,,,-99.99,,2013-06-17 06:53:00,
2013-06-17 03:02:00,70.0,66.0,-100.00,North,10,4.0,5.0,87,-99.99,,,-99.99,,2013-06-17 07:02:00,
2013-06-17 03:12:00,70.0,66.0,-100.00,North,10,3.0,8.0,87,-99.99,,,-99.99,,2013-06-17 07:12:00,
2013-06-17 03:22:00,70.0,66.0,-100.00,North,10,3.0,8.0,87,-99.99,,,-99.99,,2013-06-17 07:22:00,
2013-06-17 03:33:00,70.0,67.0,-100.00,North,5,3.0,4.0,88,-99.99,,,-99.99,,2013-06-17 07:33:00,
2013-06-17 03:43:00,71.0,67.0,-100.00,North,5,4.0,5.0,88,-99.99,,,-99.99,,2013-06-17 07:43:00,
2013-06-17 03:53:00,71.0,67.0,-100.00,North,5,3.0,5.0,88,-99.99,,,-99.99,,2013-06-17 07:53:00,
2013-06-17 04:02:00,71.0,67.0,-100.00,North,5,3.0,5.0,88,-99.99,,,-99.99,,2013-06-17 08:02:00,
2013-06-17 04:12:00,71.0,67.0,-100.00,North,10,4.0,5.0,88,-99.99,,,-99.99,,2013-06-17 08:12:00,
2013-06-17 04:22:00,71.0,67.0,-100.00,North,10,4.0,5.0,88,-99.99,,,-99.99,,2013-06-17 08:22:00,
2013-06-17 04:34:00,71.0,67.0,-100.00,North,5,10.0,12.0,88,-99.99,,,-99.99,,2013-06-17 08:34:00,
2013-06-17 04:43:00,71.0,66.0,-100.00,North,5,7.0,13.0,87,-99.99,,,-99.99,,2013-06-17 08:43:00,
2013-06-17 04:53:00,70.0,66.0,-100.00,North,5,6.0,12.0,87,-99.99,,,-99.99,,2013-06-17 08:53:00,
2013-06-17 05:02:00,70.0,66.0,-100.00,North,5,6.0,12.0,87,-99.99,,,-99.99,,2013-06-17 09:02:00,
2013-06-17 05:12:00,70.0,66.0,-100.00,North,5,5.0,7.0,87,-99.99,,,-99.99,,2013-06-17 09:12:00,
2013-06-17 05:22:00,70.0,66.0,-100.00,North,5,5.0,7.0,87,-99.99,,,-99.99,,2013-06-17 09:22:00,
2013-06-17 05:34:00,71.0,66.0,-100.00,North,5,3.0,10.0,87,-99.99,,,-99.99,,2013-06-17 09:34:00,
2013-06-17 05:44:00,71.0,66.0,-100.00,North,5,5.0,10.0,87,-99.99,,,-99.99,,2013-06-17 09:44:00,
2013-06-17 05:52:00,71.0,67.0,-100.00,North,5,6.0,11.0,87,-99.99,,,-99.99,,2013-06-17 09:52:00,
2013-06-17 06:02:00,71.0,67.0,-100.00,North,5,6.0,11.0,87,-99.99,,,-99.99,,2013-06-17 10:02:00,
2013-06-17 06:12:00,71.0,67.0,-100.00,North,5,4.0,10.0,87,-99.99,,,-99.99,,2013-06-17 10:12:00,
2013-06-17 06:22:00,71.0,66.0,-100.00,North,5,8.0,11.0,86,-99.99,,,-99.99,,2013-06-17 10:22:00,
2013-06-17 06:33:00,71.0,66.0,-100.00,North,5,8.0,11.0,86,-99.99,,,-99.99,,2013-06-17 10:33:00,
2013-06-17 06:43:00,70.0,66.0,-100.00,NE,55,3.0,10.0,86,-99.99,,,-99.99,,2013-06-17 10:43:00,
2013-06-17 06:53:00,70.0,66.0,-100.00,North,5,3.0,8.0,87,-99.99,,,-99.99,,2013-06-17 10:53:00,
2013-06-17 07:02:00,70.0,66.0,-100.00,North,5,3.0,8.0,87,-99.99,,,-99.99,,2013-06-17 11:02:00,
2013-06-17 07:12:00,70.0,66.0,-100.00,North,10,2.0,6.0,87,-99.99,,,-99.99,,2013-06-17 11:12:00,
2013-06-17 07:23:00,70.0,66.0,-100.00,North,10,2.0,6.0,87,-99.99,,,-99.99,,2013-06-17 11:23:00,
2013-06-17 07:33:00,70.0,66.0,-100.00,North,5,7.0,11.0,87,-99.99,,,-99.99,,2013-06-17 11:33:00,
2013-06-17 07:43:00,70.0,66.0,-100.00,North,5,4.0,9.0,88,-99.99,,,-99.99,,2013-06-17 11:43:00,
2013-06-17 07:53:00,70.0,66.0,-100.00,North,5,4.0,9.0,88,-99.99,,,-99.99,,2013-06-17 11:53:00,
2013-06-17 08:02:00,71.0,66.0,-100.00,North,5,4.0,9.0,87,-99.99,,,-99.99,,2013-06-17 12:02:00,
2013-06-17 08:12:00,71.0,66.0,-100.00,North,5,4.0,6.0,85,-99.99,,,-99.99,,2013-06-17 12:12:00,
2013-06-17 08:23:00,71.0,66.0,-100.00,North,5,4.0,6.0,85,-99.99,,,-99.99,,2013-06-17 12:23:00,
2013-06-17 08:33:00,72.0,66.0,-100.00,NNE,15,3.0,6.0,82,-99.99,,,-99.99,,2013-06-17 12:33:00,
2013-06-17 08:43:00,72.0,65.0,-100.00,NNE,15,4.0,8.0,81,-99.99,,,-99.99,,2013-06-17 12:43:00,
2013-06-17 08:53:00,72.0,65.0,-100.00,NNE,15,4.0,8.0,81,-99.99,,,-99.99,,2013-06-17 12:53:00,
2013-06-17 09:02:00,72.0,66.0,-100.00,North,5,4.0,6.0,82,-99.99,,,-99.99,,2013-06-17 13:02:00,
2013-06-17 09:12:00,72.0,67.0,-100.00,North,5,4.0,5.0,82,-99.99,,,-99.99,,2013-06-17 13:12:00,
2013-06-17 09:22:00,72.0,67.0,-100.00,North,5,4.0,5.0,82,-99.99,,,-99.99,,2013-06-17 13:22:00,
2013-06-17 09:32:00,73.0,67.0,-100.00,North,5,4.0,6.0,82,-99.99,,,-99.99,,2013-06-17 13:32:00,
2013-06-17 09:43:00,74.0,67.0,-100.00,North,5,4.0,5.0,80,-99.99,,,-99.99,,2013-06-17 13:43:00,
2013-06-17 09:52:00,74.0,67.0,-100.00,North,5,4.0,5.0,80,-99.99,,,-99.99,,2013-06-17 13:52:00,
2013-06-17 10:02:00,75.0,67.0,-100.00,North,5,3.0,5.0,77,-99.99,,,-99.99,,2013-06-17 14:02:00,
2013-06-17 10:12:00,75.0,67.0,-100.00,North,5,5.0,7.0,76,-99.99,,,-99.99,,2013-06-17 14:12:00,
2013-06-17 10:22:00,75.0,67.0,-100.00,North,5,5.0,7.0,76,-99.99,,,-99.99,,2013-06-17 14:22:00,
2013-06-17 10:43:00,76.0,66.0,-100.00,North,5,4.0,6.0,72,-99.99,,,-99.99,,2013-06-17 14:43:00,
2013-06-17 10:53:00,76.0,66.0,-100.00,North,5,4.0,6.0,72,-99.99,,,-99.99,,2013-06-17 14:53:00,
2013-06-17 11:02:00,77.0,66.0,-100.00,North,5,5.0,6.0,70,-99.99,,,-99.99,,2013-06-17 15:02:00,
2013-06-17 11:12:00,78.0,66.0,-100.00,North,5,11.0,14.0,66,-99.99,,,-99.99,,2013-06-17 15:12:00,
2013-06-17 11:22:00,78.0,66.0,-100.00,North,5,11.0,14.0,66,-99.99,,,-99.99,,2013-06-17 15:22:00,
2013-06-17 11:33:00,78.0,65.0,-100.00,North,5,12.0,15.0,64,-99.99,,,-99.99,,2013-06-17 15:33:00,
2013-06-17 11:43:00,80.0,62.0,-100.00,North,5,2.0,12.0,54,-99.99,,,-99.99,,2013-06-17 15:43:00,
2013-06-17 12:12:00,81.0,57.0,-100.00,North,5,7.0,14.0,44,-99.99,,,-99.99,,2013-06-17 16:12:00,
2013-06-17 12:43:00,83.0,58.0,-100.00,North,5,7.0,16.0,43,-99.99,,,-99.99,,2013-06-17 16:43:00,
2013-06-17 13:22:00,84.0,58.0,-100.00,North,5,9.0,18.0,42,-99.99,,,-99.99,,2013-06-17 17:22:00,
2013-06-17 13:43:00,84.0,60.0,-100.00,North,5,6.0,13.0,45,-99.99,,,-99.99,,2013-06-17 17:43:00,
2013-06-17 13:52:00,84.0,60.0,-100.00,North,5,6.0,13.0,45,-99.99,,,-99.99,,2013-06-17 17:52:00,
2013-06-17 14:02:00,83.0,60.0,-100.00,North,5,8.0,16.0,46,-99.99,,,-99.99,,2013-06-17 18:02:00,
2013-06-17 14:12:00,82.0,61.0,-100.00,North,5,11.0,18.0,49,-99.99,,,-99.99,,2013-06-17 18:12:00,
2013-06-17 14:23:00,82.0,62.0,-100.00,North,5,5.0,16.0,50,-99.99,,,-99.99,,2013-06-17 18:23:00,
2013-06-17 14:43:00,83.0,63.0,-100.00,North,5,6.0,15.0,51,-99.99,,,-99.99,,2013-06-17 18:43:00,
2013-06-17 14:53:00,83.0,63.0,-100.00,North,5,6.0,15.0,51,-99.99,,,-99.99,,2013-06-17 18:53:00,
2013-06-17 15:02:00,83.0,63.0,-100.00,North,5,7.0,17.0,51,-99.99,,,-99.99,,2013-06-17 19:02:00,
2013-06-17 15:12:00,83.0,64.0,-100.00,North,5,6.0,15.0,53,-99.99,,,-99.99,,2013-06-17 19:12:00,
2013-06-17 15:22:00,83.0,64.0,-100.00,North,5,6.0,15.0,53,-99.99,,,-99.99,,2013-06-17 19:22:00,
2013-06-17 15:33:00,81.0,65.0,-100.00,North,5,11.0,19.0,59,-99.99,,,-99.99,,2013-06-17 19:33:00,
2013-06-17 15:43:00,81.0,66.0,-100.00,North,5,10.0,18.0,60,-99.99,,,-99.99,,2013-06-17 19:43:00,
2013-06-17 15:53:00,81.0,66.0,-100.00,North,5,10.0,18.0,60,-99.99,,,-99.99,,2013-06-17 19:53:00,
2013-06-17 16:02:00,81.0,67.0,-100.00,North,5,9.0,17.0,62,-99.99,,,-99.99,,2013-06-17 20:02:00,
2013-06-17 16:11:00,80.0,66.0,-100.00,North,5,8.0,18.0,61,-99.99,,,-99.99,,2013-06-17 20:11:00,
2013-06-17 16:22:00,80.0,66.0,-100.00,North,5,8.0,18.0,61,-99.99,,,-99.99,,2013-06-17 20:22:00,
2013-06-17 16:34:00,80.0,66.0,-100.00,North,5,8.0,17.0,62,-99.99,,,-99.99,,2013-06-17 20:34:00,
2013-06-17 16:43:00,79.0,66.0,-100.00,North,5,7.0,19.0,64,-99.99,,,-99.99,,2013-06-17 20:43:00,
2013-06-17 16:52:00,79.0,66.0,-100.00,North,5,7.0,19.0,64,-99.99,,,-99.99,,2013-06-17 20:52:00,
2013-06-17 17:02:00,78.0,66.0,-100.00,North,5,13.0,22.0,66,-99.99,,,-99.99,,2013-06-17 21:02:00,
2013-06-17 17:12:00,78.0,66.0,-100.00,North,5,10.0,18.0,66,-99.99,,,-99.99,,2013-06-17 21:12:00,
2013-06-17 17:22:00,78.0,66.0,-100.00,North,5,10.0,18.0,66,-99.99,,,-99.99,,2013-06-17 21:22:00,
2013-06-17 17:33:00,77.0,66.0,-100.00,North,5,17.0,23.0,68,-99.99,,,-99.99,,2013-06-17 21:33:00,
2013-06-17 17:43:00,75.0,66.0,-100.00,North,5,19.0,25.0,73,-99.99,,,-99.99,,2013-06-17 21:43:00,
2013-06-17 17:52:00,75.0,66.0,-100.00,North,5,19.0,25.0,73,-99.99,,,-99.99,,2013-06-17 21:52:00,
2013-06-17 18:01:00,75.0,66.0,-100.00,North,5,18.0,28.0,74,-99.99,,,-99.99,,2013-06-17 22:01:00,
2013-06-17 18:12:00,75.0,66.0,-100.00,North,5,18.0,26.0,74,-99.99,,,-99.99,,2013-06-17 22:12:00,
2013-06-17 18:22:00,75.0,66.0,-100.00,North,5,18.0,26.0,74,-99.99,,,-99.99,,2013-06-17 22:22:00,
2013-06-17 18:34:00,75.0,67.0,-100.00,North,5,15.0,24.0,75,-99.99,,,-99.99,,2013-06-17 22:34:00,
2013-06-17 18:43:00,75.0,67.0,-100.00,North,5,14.0,27.0,75,-99.99,,,-99.99,,2013-06-17 22:43:00,
2013-06-17 18:53:00,74.0,66.0,-100.00,North,5,15.0,28.0,76,-99.99,,,-99.99,,2013-06-17 22:53:00,
2013-06-17 19:02:00,74.0,66.0,-100.00,North,5,15.0,28.0,76,-99.99,,,-99.99,,2013-06-17 23:02:00,
2013-06-17 19:11:00,74.0,67.0,-100.00,North,5,14.0,26.0,77,-99.99,,,-99.99,,2013-06-17 23:11:00,
2013-06-17 19:22:00,74.0,67.0,-100.00,North,5,14.0,26.0,77,-99.99,,,-99.99,,2013-06-17 23:22:00,
2013-06-17 19:33:00,74.0,67.0,-100.00,North,5,15.0,25.0,77,-99.99,,,-99.99,,2013-06-17 23:33:00,
2013-06-17 19:43:00,74.0,66.0,-100.00,North,5,15.0,23.0,78,-99.99,,,-99.99,,2013-06-17 23:43:00,
2013-06-17 19:53:00,74.0,66.0,-100.00,North,5,15.0,23.0,78,-99.99,,,-99.99,,2013-06-17 23:53:00,
2013-06-17 20:02:00,73.0,66.0,-100.00,North,10,18.0,23.0,79,-99.99,,,-99.99,,2013-06-18 00:02:00,
2013-06-17 20:12:00,73.0,66.0,-100.00,North,5,10.0,22.0,80,-99.99,,,-99.99,,2013-06-18 00:12:00,
2013-06-17 20:22:00,73.0,66.0,-100.00,North,5,10.0,22.0,80,-99.99,,,-99.99,,2013-06-18 00:22:00,
2013-06-17 20:33:00,74.0,67.0,-100.00,North,5,11.0,20.0,79,-99.99,,,-99.99,,2013-06-18 00:33:00,
2013-06-17 20:43:00,74.0,67.0,-100.00,North,5,10.0,22.0,79,-99.99,,,-99.99,,2013-06-18 00:43:00,
2013-06-17 20:52:00,74.0,67.0,-100.00,North,5,10.0,22.0,79,-99.99,,,-99.99,,2013-06-18 00:52:00,
2013-06-17 21:01:00,75.0,68.0,-100.00,North,5,10.0,16.0,79,-99.99,,,-99.99,,2013-06-18 01:01:00,
2013-06-17 21:12:00,75.0,68.0,-100.00,North,5,10.0,16.0,79,-99.99,,,-99.99,,2013-06-18 01:12:00,
2013-06-17 21:23:00,74.0,67.0,-100.00,North,5,6.0,15.0,80,-99.99,,,-99.99,,2013-06-18 01:23:00,
2013-06-17 21:34:00,73.0,67.0,-100.00,North,5,3.0,13.0,81,-99.99,,,-99.99,,2013-06-18 01:34:00,
2013-06-17 21:44:00,74.0,68.0,-100.00,North,5,3.0,6.0,81,-99.99,,,-99.99,,2013-06-18 01:44:00,
2013-06-17 21:53:00,74.0,68.0,-100.00,North,5,3.0,6.0,81,-99.99,,,-99.99,,2013-06-18 01:53:00,
2013-06-17 22:02:00,74.0,68.0,-100.00,North,5,1.0,4.0,80,-99.99,,,-99.99,,2013-06-18 02:02:00,
2013-06-17 22:12:00,74.0,68.0,-100.00,North,5,1.0,4.0,80,-99.99,,,-99.99,,2013-06-18 02:12:00,
2013-06-17 22:23:00,74.0,68.0,-100.00,North,10,2.0,5.0,81,-99.99,,,-99.99,,2013-06-18 02:23:00,
2013-06-17 22:34:00,74.0,68.0,-100.00,North,10,2.0,5.0,81,-99.99,,,-99.99,,2013-06-18 02:34:00,
2013-06-17 22:43:00,74.0,68.0,-100.00,North,5,6.0,11.0,81,-99.99,,,-99.99,,2013-06-18 02:43:00,
2013-06-17 22:53:00,74.0,68.0,-100.00,North,5,6.0,11.0,81,-99.99,,,-99.99,,2013-06-18 02:53:00,
2013-06-17 23:02:00,74.0,68.0,-100.00,North,5,5.0,11.0,81,-99.99,,,-99.99,,2013-06-18 03:02:00,
2013-06-17 23:12:00,74.0,68.0,-100.00,North,5,4.0,5.0,81,-99.99,,,-99.99,,2013-06-18 03:12:00,
2013-06-17 23:23:00,74.0,68.0,-100.00,North,5,4.0,5.0,81,-99.99,,,-99.99,,2013-06-18 03:23:00,
2013-06-17 23:34:00,73.0,68.0,-100.00,North,5,8.0,13.0,82,-99.99,,,-99.99,,2013-06-18 03:34:00,
2013-06-17 23:43:00,73.0,64.0,-100.00,North,5,7.0,10.0,72,-99.99,,,-99.99,,2013-06-18 03:43:00,
2013-06-17 23:53:00,73.0,64.0,-100.00,North,5,7.0,10.0,72,-99.99,,,-99.99,,2013-06-18 03:53:00,